Hourly Data Report for July 20, 2021

GORE BAY CLIMATE
ONTARIO
Current Station Operator: ECCC - MSC

45°53'00.000" N
82°34'00.000" W
188.60 m
6092920
71956
TZE

Download Data

Hourly Data (July 2021)
Hourly Data Report for July 20, 2021
TIME
LST
Temp Definition
°C
Dew Point Definition
°C
Rel Hum Definition
%
Precip. Amount Definition
mm

Wind Dir Definition
10's deg

Wind Spd Definition
km/h
Visibility Definition
km
Stn Press Definition
kPa
Hmdx Definition


Wind Chill Definition


Weather Definition


00:00 21.9 15.8 68 0.0 29 11   99.30 26   LegendNANA
01:00 20.8 17.1 79 0.0 27 7   99.26 26   LegendNANA
02:00 20.9 16.9 78 0.0 28 10   99.23 26   LegendNANA
03:00 19.8 16.5 81 0.0 28 1   99.19     LegendNANA
04:00 19.8 17.2 85 0.0 36 5   99.19     LegendNANA
05:00 18.4 16.6 89 0.0 26 1   99.12     LegendNANA
06:00 20.4 18.5 89 0.0 29 9   99.15 27   LegendNANA
07:00 18.8 15.3 80 10.0 2 27   99.21     LegendNANA
08:00 20.3 14.9 71 0.0 7 12   99.16     LegendNANA
09:00 20.5 15.5 73 0.0 3 17   99.17 25   LegendNANA
10:00 20.1 15.9 77 0.0 2 26   99.24 25   LegendNANA
11:00 20.9 15.4 70 0.0 3 20   99.29 25   LegendNANA
12:00 19.5 14.7 74 0.0 3 22   99.34     LegendNANA
13:00 19.7 14.1 70 0.0 3 20   99.37     LegendNANA
14:00 19.1 13.8 71 0.0 4 17   99.38     LegendNANA
15:00 18.6 12.9 70 0.0 3 20   99.41     LegendNANA
16:00 19.0 12.5 66 0.0 5 21   99.43     LegendNANA
17:00 19.4 12.1 63 0.0 5 21   99.41     LegendNANA
18:00 19.5 11.8 61 0.0 5 16   99.42     LegendNANA
19:00 19.6 10.2 54 0.0 5 18   99.45     LegendNANA
20:00 18.6 9.6 56 0.0 5 17   99.51     LegendNANA
21:00 18.4 8.6 53 0.0 3 14   99.59     LegendNANA
22:00 18.4 7.7 50 0.0 4 18   99.61     LegendNANA
23:00 17.6 8.6 55 0.0 4 13   99.61     LegendNANA

Notes on Data Quality.

Legend

  • E = Estimated
  • M = Missing
  • NA = Not Available*
  • [empty] = Indicates an unobserved value
Date modified: